Main page
METAR-TAF:

METAR-TAF

Airports :

Euro, Netherlands

Oil platform

latitude: 51-59-52N, longitude: 3-16-30E, elevation: 18 m

Current weather observation

The report was made 56 minutes ago, at 06:25 UTC
Wind 23 kt from the West with gusts up to 29 kt
Temperature 15°C
Humidity 72%
Pressure 1013 hPa
Visibility 10 km or more

METAR: EHSA 190625Z AUTO 26023G29KT 9999 ///////// 15/10 Q1013 W19/H20

Time: 09:21 (07:21 UTC)


TAF: missing

Weather observations and forecasts of more than 4000 airports (METAR and TAF reports).

The available stations are represented by yellow and red dots on the map.

Hover mouse over dot to see the name of the station.

Then click to see weather observations and forecasts.

To change the map : click on the green buttons with a black cross to zoom in, on the green button with a dash to zoom out, or on the green arrows for adjacent maps.


METAR-TAF: